Regional Weather Roundup
Issued by NWS

Home | Current Version | Previous Version | Text Only | Print | Product List | Glossary On
Versions: 1 2 3 4 5 6 7 8 9 10 11 12 13 14 15 16 17 18 19 20 21 22 23 24 25 26 27 28 29 30 31 32 33 34 35 36 37 38 39 40 41 42 43 44 45 46 47 48 49 50
000
ASUS43 KBIS 192310
RWRND

NORTH DAKOTA REGIONAL WEATHER ROUNDUP
NATIONAL WEATHER SERVICE BISMARCK ND
600 PM CDT WED JUL 19 2017

NOTE: "FAIR" INDICATES FEW OR NO CLOUDS BELOW 12,000 FEET WITH NO
SIGNIFICANT WEATHER AND/OR OBSTRUCTIONS TO VISIBILITY.


NDZ001>003-009>011-017-200000-
NORTHWEST NORTH DAKOTA

CITY           SKY/WX    TMP DP  RH WIND       PRES   REMARKS
WILLISTON      SUNNY     92  52  25 SW8       29.90F
MINOT          SUNNY     90  55  30 NW15      29.89F
MINOT AFB      SUNNY     87  53  31 N8        29.89S
$$

NDZ018>021-031>035-040>046-200000-
SOUTHWEST NORTH DAKOTA

CITY           SKY/WX    TMP DP  RH WIND       PRES   REMARKS
BISMARCK       SUNNY     89  59  36 NW5       29.94F
DICKINSON      SUNNY     85  55  35 SW3       29.98S
GARRISON         N/A     88  54  31 W15G23    29.92F
HETTINGER ARPT SUNNY     86  54  33 E6        30.01F
$$

NDZ004>008-012>016-024-026-027-054-200000-
NORTHEAST NORTH DAKOTA

CITY           SKY/WX    TMP DP  RH WIND       PRES   REMARKS
GRAND FORKS    MOSUNNY   84  66  54 SW15      29.85F
GRND FRKS AFB  SUNNY     84  65  52 W9        29.86F
DEVILS LAKE    SUNNY     84  63  49 W14       29.89F
$$

NDZ022-023-025-028>030-036>039-047>053-200000-
SOUTHEAST NORTH DAKOTA

CITY           SKY/WX    TMP DP  RH WIND       PRES   REMARKS
FARGO          SUNNY     82  66  58 CALM      29.90S
JAMESTOWN      SUNNY     84  63  49 W9        29.91F
$$





USA.gov is the U.S. government's official web portal to all federal, state and local government web resources and services.